Weather History for Olathe, KS

Change the Weather History Date:

Wednesday, November 7, 2012

  Actual Average Record
Temperature  
Mean Temperature 45 °F 48 °F  
Max Temperature 55 °F 58 °F 75 °F (1980)
Min Temperature 35 °F 39 °F 15 °F (1991)
Degree Days  
Heating Degree Days 20 17  
Month to date heating degree days 107 109  
Since 1 July heating degree days 497 434  
Cooling Degree Days 0 0  
Month to date cooling degree days 0 0  
Year to date cooling degree days 1828 1349  
Moisture  
Dew Point 30 °F    
Average Humidity 59    
Maximum Humidity 76    
Minimum Humidity 41    
Precipitation  
Precipitation 0.00 in 0.09 in 1.44 in (2011)
Month to date precipitation T 0.69  
Year to date precipitation 22.84 36.60  
Sea Level Pressure  
Sea Level Pressure 30.12 in    
Wind  
Wind Speed 5 mph (NNW)    
Max Wind Speed 14 mph    
Max Gust Speed 17 mph    
Visibility 10 miles    
Events      
T = Trace of Precipitation, MM = Missing Value Source: NWS Daily Summary

Daily Weather History Graph

Daily Weather History Graph

Search for Another Location

Airport:

Trip Planner

Search our weather history database for the weather conditions in past years. The results will help you decide how hot, cold, wet, or windy it might be!

Date:

Astronomy

Nov. 07, 2012 Rise Set
Actual Time 6:53 AM CST 5:11 PM CST
Civil Twilight 6:25 AM CST 5:39 PM CST
Nautical Twilight 5:53 AM CST 6:11 PM CST
Astronomical Twilight 5:22 AM CST 6:42 PM CST
Moon No Moon Rise 1:17 PM CST (11/7)
Length of Visible Light 11h 14m
Length of Day
10h 18m
Last Quarter, 43% of the Moon is Illuminated
Nov 7
Last Quarter
Nov 13
New
Nov 20
First Quarter
Nov 28
Full
Dec 6
Last Quarter

Hourly Weather History & Observations

Time (CST) Temp. Windchill Dew Point Humidity Pressure Visibility Wind Dir Wind Speed Gust Speed Precip Events Conditions
12:53 AM 41.0 °F 39.0 °F 27.0 °F 57% 30.07 in 10.0 mi NNW 3.5 mph - N/A   Clear
1:53 AM 42.1 °F 39.2 °F 28.0 °F 58% 30.08 in 10.0 mi NNW 4.6 mph - N/A   Clear
2:53 AM 39.0 °F 35.7 °F 28.0 °F 65% 30.07 in 10.0 mi NW 4.6 mph - N/A   Clear
3:53 AM 37.9 °F 35.5 °F 28.0 °F 68% 30.07 in 10.0 mi WNW 3.5 mph - N/A   Clear
4:53 AM 37.0 °F 32.4 °F 28.0 °F 70% 30.10 in 10.0 mi WNW 5.8 mph - N/A   Clear
5:53 AM 37.0 °F 32.4 °F 28.0 °F 70% 30.12 in 10.0 mi WNW 5.8 mph - N/A   Clear
6:53 AM 36.0 °F 32.1 °F 28.0 °F 73% 30.14 in 10.0 mi WNW 4.6 mph - N/A   Clear
7:53 AM 37.9 °F 32.7 °F 28.9 °F 70% 30.17 in 10.0 mi NW 6.9 mph - N/A   Clear
8:53 AM 42.1 °F 37.1 °F 30.9 °F 65% 30.18 in 10.0 mi NW 8.1 mph - N/A   Clear
9:53 AM 46.9 °F - 30.0 °F 52% 30.19 in 10.0 mi North 8.1 mph - N/A   Clear
10:53 AM 48.9 °F - 30.0 °F 48% 30.19 in 10.0 mi North 10.4 mph - N/A   Clear
11:53 AM 50.0 °F - 30.0 °F 46% 30.16 in 10.0 mi North 10.4 mph - N/A   Clear
12:53 PM 52.0 °F - 30.9 °F 45% 30.13 in 10.0 mi NNE 5.8 mph - N/A   Clear
1:53 PM 53.1 °F - 30.9 °F 43% 30.12 in 10.0 mi NNE 3.5 mph - N/A   Clear
2:53 PM 54.0 °F - 32.0 °F 43% 30.11 in 10.0 mi Variable 4.6 mph - N/A   Clear
3:53 PM 54.0 °F - 30.0 °F 40% 30.11 in 10.0 mi Calm Calm - N/A   Clear
4:53 PM 51.1 °F - 30.0 °F 44% 30.11 in 10.0 mi Calm Calm - N/A   Clear
5:53 PM 46.9 °F - 30.0 °F 52% 30.11 in 10.0 mi SSE 3.5 mph - N/A   Clear
6:53 PM 45.0 °F 43.5 °F 30.0 °F 56% 30.12 in 10.0 mi SE 3.5 mph - N/A   Clear
7:53 PM 44.1 °F 42.5 °F 30.9 °F 60% 30.11 in 10.0 mi SE 3.5 mph - N/A   Clear
8:53 PM 42.1 °F 38.4 °F 30.9 °F 65% 30.12 in 10.0 mi SE 5.8 mph - N/A   Clear
9:53 PM 39.9 °F 35.8 °F 32.0 °F 73% 30.12 in 10.0 mi SSE 5.8 mph - N/A   Clear
10:53 PM 39.9 °F 35.8 °F 32.0 °F 73% 30.12 in 10.0 mi SSE 5.8 mph - N/A   Clear
11:53 PM 39.0 °F 34.0 °F 32.0 °F 76% 30.12 in 10.0 mi SSE 6.9 mph - N/A   Clear